Location: ??????
(41.3164°N, 22.6615°E)
Time: 02:19:47
(UTC+00:00)

CAS-4A - Pass Details

Date: 06 July 2022
Orbit: 521 x 537 km, 43.0° (Epoch: 10 August)

Event Time Altitude Azimuth Distance (km) Brightness Sun altitude
Exits shadow 23:12:14 27° 75° (ENE) 1,014 ? -25.5°
Drops below altitude 10° 23:14:11 10° 76° (ENE) 1,756 ? -25.4°
Sets 23:16:25 0° 77° (ENE) 2,647 ? -25.3°
